Location: Unspecified
(45.3712°N, 0.6436°E)
Time: 04:27:24
(UTC+02:00)

ELECTRON R/B - Visible Passes

Search period start: 22 May 2018 00:00
Search period end: 01 June 2018 00:00
Orbit: 285 x 480 km, 82.9° (Epoch: 21 May)

Date Brightness Start Highest point End Pass type
(mag) Time Alt. Az. Time Alt. Az. Time Alt. Az.
22 May 5.8 22:07:29 10° NNE 22:09:30 23° ENE 22:11:33 10° SE visible
23 May 5.2 22:43:33 10° NNW 22:45:55 47° W 22:48:05 12° S visible
25 May 4.8 22:23:11 10° NNW 22:25:37 59° W 22:28:02 10° S visible
26 May 7.6 23:00:43 10° WNW 23:01:33 11° W 23:02:24 10° WSW visible
28 May 7.5 22:39:31 10° WNW 22:40:52 13° W 22:42:13 10° WSW visible
30 May 7.5 22:18:11 10° NW 22:19:53 16° W 22:21:37 10° SW visible
